Weather observations for the past three days for
Hunter U. S. Army Airfield
Imperial (Metric)
Date Time (edt) Wind (mph) Vis. (mi.) Weather Sky Cond. Temperature (ºF) Relative Humidity Wind Chill (°F) Heat Index (°F) Pressure Precipitation (in)
Air Dwpt 6 hour altimeter (in) sea level (mb) 1 hr 3 hr 6 hr
Max. Min.
19 07:55 SW 3 10.00 Partly Cloudy FEW120 SCT250 78.4 73.6 78.4 74.5 85% 81 30.04 1017.5
19 06:55 Calm 10.00 Partly Cloudy FEW120 SCT250 76.1 72.5 89% 76 30.03 1017.2
19 05:55 SW 5 10.00 A Few Clouds FEW150 76.6 73 89% 77 30 1016.2
19 04:55 SW 5 10.00 Fair CLR 75.6 72 89% 75 29.99 1015.8
19 03:55 SW 5 10.00 Mostly Cloudy BKN150 75.2 72 90% 75 29.99 1015.8
19 02:55 SW 6 10.00 Fair CLR 75.2 72 90% 75 30.01 1016.5
19 01:55 SW 5 10.00 Fair CLR 75.2 72 82.6 75 90% 75 30.03 1017.2
19 00:55 NW 6 10.00 Partly Cloudy SCT190 76.5 72.3 87% 77 30.03 1017.2
18 23:55 Calm 10.00 Fair CLR 76.6 72.1 86% 78 30.04 1017.5
18 22:55 SW 6 10.00 Partly Cloudy SCT170 78.6 71.4 79% 81 30.02 1016.9
18 21:55 SW 8 10.00 A Few Clouds FEW170 79.3 71.1 76% 82 30 1016.2
18 20:55 SW 9 10.00 Partly Cloudy FEW030 SCT170 80.2 71.1 74% 84 30 1016.2
18 19:55 SW 3 10.00 Mostly Cloudy BKN150 82.8 72.7 93 74.5 72% 88 29.98 1015.5 0.25
18 18:55 SW 7 10.00 Mostly Cloudy BKN150 84 72.7 69% 90 29.96 1014.8
18 17:55 S 10 10.00 Partly Cloudy SCT075 81.9 73.9 77% 88 29.96 1014.8
18 16:55 Calm 10.00 Light Rain BKN065 76.1 72.1 88% 76 29.97 1015.2 0.25 0.25
18 15:55 S 7 10.00 Thunderstorm Light Rain FEW002 OVC048 74.5 71.1 89% 30 1016.2
18 14:55 S 8 10.00 Thunderstorm SCT041 BKN080 87.8 73.6 63% 96 29.99 1015.8
18 13:55 SW 7 10.00 Showers in Vicinity FEW038 SCT045 SCT200 92.1 74.1 92.1 78.1 56% 102 30.01 1016.5
18 12:55 W 3 10.00 Mostly Cloudy BKN032 BKN150 BKN200 89.8 74.5 61% 100 30.02 1016.9
18 11:55 SW 7 10.00 Mostly Cloudy SCT030 BKN110 87.1 74.3 66% 96 30.04 1017.5
18 10:55 W 8 10.00 Partly Cloudy SCT030 85.8 75.7 72% 95 30.04 1017.5
18 09:55 SW 7 10.00 Mostly Cloudy FEW020 BKN160 81.3 74.5 80% 87 30.05 1017.9
18 08:55 SW 7 10.00 Mostly Cloudy BKN170 79.2 73 82% 83 30.04 1017.5
18 07:55 SW 5 10.00 Mostly Cloudy BKN160 78.1 73.2 78.1 74.5 85% 81 30.04 1017.5
18 06:55 W 3 10.00 Mostly Cloudy BKN150 75.7 72.1 89% 76 30.02 1016.9
18 05:55 Calm 10.00 Overcast BKN140 OVC160 75.7 72.5 90% 76 30.01 1016.5
18 04:55 NW 3 10.00 Mostly Cloudy BKN150 76.3 72.7 89% 77 29.99 0.0
18 03:55 Calm 10.00 Mostly Cloudy BKN210 75.6 72.7 91% 75 29.99 1015.8
18 02:55 Calm 10.00 Fair CLR 76.1 72.5 89% 76 29.98 1015.5
18 01:55 Calm 10.00 Fair CLR 76.8 71.6 79.3 76.8 84% 78 29.99 1015.8 0.02
18 00:55 Calm 10.00 Fair CLR 77.9 73 85% 80 29.99 1015.8
17 23:55 W 3 10.00 Overcast OVC150 78.6 73.4 84% 82 30.01 1016.5
17 22:55 SW 6 10.00 Mostly Cloudy BKN200 78.8 72.5 81% 82 30.02 1016.9
17 21:55 SW 9 10.00 Mostly Cloudy BKN180 79.2 73.4 83% 83 30.02 1016.9
17 20:55 W 6 10.00 Mostly Cloudy SCT050 BKN190 78.8 74.5 87% 82 30.01 1016.5 0.02
17 19:55 SW 6 10.00 Light Rain BKN043 79.2 74.5 95.7 79.2 86% 83 29.99 1015.8
17 18:55 SW 7 10.00 Light Rain BKN039 82.8 73.2 73% 89 29.98 1015.5
17 16:55 S 18 G 24 10.00 Thunderstorm in Vicinity SCT050CB BKN080 86 73.4 66% 93 29.94 0.0
17 15:55 S 8 G 17 10.00 Mostly Cloudy BKN039 90.9 75.9 62% 103 29.96 1014.8
17 14:55 S 8 10.00 Thunderstorm in Vicinity BKN049CB BKN190 94.5 73.9 52% 105 29.98 1015.5
17 13:02 W 5 10.00 Mostly Cloudy SCT041 SCT170 BKN190 93.2 73.9 54% 103 30.01 1016.5
17 09:55 W 12 10.00 Partly Cloudy FEW030 SCT250 86.2 74.7 69% 95 30.04 1017.5
17 08:55 W 13 10.00 Partly Cloudy FEW030 SCT250 84.2 75.4 75% 93 30.04 1017.5
17 07:55 SW 7 10.00 Partly Cloudy FEW050 SCT250 79.9 74.8 81 78.3 85% 85 30.03 1017.2
17 06:55 SW 5 10.00 Partly Cloudy FEW050 SCT250 78.4 74.1 87% 81 30.01 1016.5
17 05:55 SW 5 10.00 A Few Clouds FEW050 78.6 73.9 86% 82 29.98 1015.5
17 04:55 SW 5 10.00 Fair CLR 79.2 73.8 84% 83 29.96 1014.8
17 03:55 W 6 10.00 Fair CLR 79.7 73.6 82% 84 29.96 1014.8
17 02:55 S 7 10.00 Fair CLR 80.6 73.4 79% 85 29.96 1014.8
17 01:55 S 6 10.00 Fair CLR 81 74.1 87.6 80.8 80% 86 29.98 1015.5
17 00:55 S 7 10.00 Fair CLR 81.5 74.7 80% 88 29.99 1015.8
16 23:55 Calm 10.00 Fair CLR 81.7 74.8 80% 88 30.01 1016.5
16 22:55 SW 5 10.00 Fair CLR 83.1 74.7 76% 90 30.01 1016.5
16 21:55 S 10 10.00 Partly Cloudy SCT045 83.8 75.4 76% 92 29.99 1015.8
16 20:55 S 7 10.00 Mostly Cloudy SCT050 BKN200 85.3 74.3 70% 93 29.98 1015.5
16 19:55 S 9 10.00 Partly Cloudy FEW040 SCT200 87.6 74.3 93.9 87.6 65% 97 29.97 1015.2
16 18:55 S 8 10.00 Partly Cloudy FEW040 SCT200 90.5 73 57% 99 29.96 1014.8
16 17:55 S 8 G 21 10.00 Partly Cloudy SCT040 90.3 74.5 60% 100 29.95 1014.5
16 16:55 S 12 G 18 10.00 Mostly Cloudy SCT029 BKN080 91 78.1 66% 106 29.95 1014.5
16 15:55 S 10 10.00 Mostly Cloudy SCT030 BKN045 90.9 77.4 65% 105 29.96 1014.8
16 14:55 S 6 10.00 Partly Cloudy SCT042 93.4 73 52% 103 29.98 1015.5
16 13:55 S 8 10.00 Partly Cloudy FEW030 SCT170 91.4 73.9 93 77.4 57% 101 29.99 1015.8
16 12:55 SW 10 10.00 Partly Cloudy FEW030 SCT170 91.4 72.9 55% 100 30.02 1016.9
16 11:55 SW 5 10.00 A Few Clouds FEW040 FEW210 88.3 73.6 62% 97 30.03 1017.2
16 10:55 SW 5 10.00 Mostly Cloudy BKN140 84.9 73.9 70% 92 30.03 1017.2
16 09:55 Calm 10.00 Mostly Cloudy BKN150 81.1 74.3 80% 87 30.03 1017.2
16 08:55 SW 6 10.00 Mostly Cloudy BKN150 79.3 73.6 83% 83 30.04 1017.5
Date Time (edt) Wind (mph) Vis. (mi.) Weather Sky Cond. Air Dwpt Max. Min. Relative Humidity Wind Chill (°F) Heat Index (°F) altimeter (in) sea level (mb) 1 hr 3 hr 6 hr
6 hour
Temperature (ºF) Pressure Precipitation (in)